This is the latest recevied weather packets stored in our database for station/object KB1RMA-4. If no packets are shown the sender has not sent any weather packets the latest 10 day(s).
| Time | Temp. | Humidity | Pressure | Rain* | Wind** | Luminosity | Snow |
|---|---|---|---|---|---|---|---|
| 1788274254 | 17.22° C | 96% | 1018.1 hPa | 0 mm | - | 212 W/m² | - |
| 1788273950 | 16.67° C | 96% | 1018.2 hPa | 0 mm | - | 187 W/m² | - |
| 1788273644 | 16.67° C | 95% | 1018.2 hPa | 0 mm | - | 204 W/m² | - |
| 1788273341 | 16.67° C | 95% | 1018.2 hPa | 0 mm | - | 166 W/m² | - |
| 1788273037 | 16.67° C | 95% | 1017.9 hPa | 0 mm | - | 141 W/m² | - |
| 1788272737 | 16.67° C | 95% | 1017.9 hPa | 0 mm | - | 191 W/m² | - |
| 1788272445 | 16.67° C | 95% | 1018.1 hPa | 0 mm | - | 204 W/m² | - |
| 1788272132 | 16.67° C | 95% | 1018 hPa | 2.29 mm | - | 200 W/m² | - |
| 1788271827 | 16.67° C | 94% | 1017.9 hPa | 4.83 mm | - | 183 W/m² | - |
| 1788271526 | 16.67° C | 94% | 1018.1 hPa | 4.83 mm | - | 144 W/m² | - |
| 1788271221 | 16.11° C | 94% | 1018.4 hPa | 4.32 mm | - | 108 W/m² | - |
| 1788270919 | 16.11° C | 93% | 1018.1 hPa | 1.78 mm | - | 69 W/m² | - |
| 1788270615 | 16.11° C | 93% | 1018.2 hPa | 2.29 mm | - | 52 W/m² | - |
| 1788270312 | 16.11° C | 93% | 1018.3 hPa | 4.83 mm | - | 51 W/m² | - |
| 1788270006 | 16.11° C | 92% | 1018.5 hPa | 4.83 mm | - | 46 W/m² | - |
| 1788269704 | 16.11° C | 92% | 1018.5 hPa | 4.83 mm | - | 38 W/m² | - |
| 1788269404 | 16.11° C | 91% | 1018.5 hPa | 4.32 mm | - | 34 W/m² | - |
| 1788269103 | 16.11° C | 91% | 1018.7 hPa | 6.6 mm | - | 33 W/m² | - |
| 1788268803 | 16.11° C | 90% | 1018.8 hPa | 9.65 mm | - | 35 W/m² | - |
| 1788268503 | 16.11° C | 89% | 1018.6 hPa | 6.6 mm | - | 29 W/m² | - |
| 1788268198 | 16.11° C | 89% | 1018.5 hPa | 6.6 mm | - | 23 W/m² | - |
| 1788267893 | 16.11° C | 89% | 1018.8 hPa | 9.65 mm | - | 17 W/m² | - |
| 1788267590 | 16.11° C | 88% | 1018.9 hPa | 11.43 mm | - | 16 W/m² | - |
| 1788267285 | 16.11° C | 87% | 1018.8 hPa | 8.89 mm | - | 19 W/m² | - |
| 1788266985 | 16.67° C | 86% | 1018.9 hPa | 6.6 mm | - | 13 W/m² | - |
* Rain latest hour (hover to see other rain measurements)
** Current wind speed in m/s (hover to see current wind gust speed)